Location: Bruderhein
(53.8035°N, 112.9265°W)
Time: 03:17:56
(UTC+00:00)

KKS-1 - Pass Details

Date: 07 April 2023
Orbit: 633 x 644 km, 98.2° (Epoch: 31 May)

Event Time Altitude Azimuth Distance (km) Brightness Sun altitude
Rises 08:21:39 0° 3° (N) 2,946 ? -28.6°
Reaches altitude 10° 08:25:13 10° 332° (NNW) 2,032 ? -28.5°
Maximum altitude 08:26:50 12° 311° (NW) 1,904 ? -28.4°
Enters shadow 08:27:53 11° 296° (WNW) 1,956 ? -28.4°
